Location: ????????
(54.6123°N, 39.2099°E)
Time: 18:02:01
(UTC+00:00)

Daily predictions for brighter satellites

Satellite Brightness Start Highest point End
(mag) Time Altitude Azimuth Time Altitude Azimuth Time Altitude Azimuth
Cosmos 2154 Rocket 4.4 18:05:51 10° NNW 18:12:00 66° W 18:18:08 10° S
Nadezhda 1 Rocket 4.0 18:07:16 10° S 18:13:20 75° E 18:19:32 10° NNE
Cosmos 1814 Rocket 4.0 18:08:48 10° SSW 18:13:56 77° ESE 18:19:08 10° NNE
Cosmos 1867 3.7 18:08:36 10° NW 18:14:07 85° SW 18:19:34 10° SE
SPOT 5 4.1 18:10:16 10° SSW 18:14:14 35° W 18:18:13 10° NNW
Cosmos 2341 Rocket 4.2 18:08:14 10° N 18:14:28 59° ENE 18:20:35 10° SSE
Lacrosse 5 rocket 1.7 18:11:33 10° WNW 18:14:55 39° SW 18:18:11 10° SE
Cosmos-2242 3.2 18:17:07 10° S 18:21:17 55° E 18:25:28 10° NNE
Cosmos 2082 Rocket 3.9 18:19:38 10° SE 18:22:28 14° E 18:25:19 10° ENE
SeaSat 1 2.9 18:18:06 10° SE 18:22:52 53° NE 18:27:39 10° NNW
Cosmos 1536 4.2 18:21:10 10° N 18:24:20 24° ENE 18:27:28 10° ESE
Iridium 4 Rocket 4.0 18:19:53 10° N 18:24:51 65° W 18:30:13 10° S
Okean O Rocket 3.0 18:23:17 10° SSW 18:27:18 36° W 18:31:21 10° NNW
SPOT 3 Rocket 3.6 18:23:11 10° SSE 18:28:18 76° ENE 18:33:28 10° NNW
Cosmos 2221 3.8 18:25:08 10° SE 18:28:23 22° E 18:31:39 10° NE
Cosmos 1933 3.5 18:25:46 10° SSW 18:29:37 71° WNW 18:33:30 10° N
NOSS 2-3 (C) 4.3 18:27:06 10° WSW 18:30:38 52° NNW 18:34:52 10° NE
ERS-1 Rocket 3.9 18:27:26 10° S 18:32:17 48° W 18:37:09 10° NNW
Okean-O 3.7 18:28:30 10° S 18:32:41 43° W 18:36:54 10° NNW
Okean 1 4.5 18:33:48 10° SE 18:36:45 23° E 18:39:41 10° NE
NOSS 3-1 (C) 3.6 18:33:28 10° S 18:37:55 37° ESE 18:43:15 10° ENE
Cosmos 1743 4.2 18:39:54 10° NNW 18:42:57 30° W 18:45:58 10° SSW
Spot 2 Rocket 4.0 18:38:50 10° S 18:43:47 60° WSW 18:48:48 10° NNW
Cosmos 2333 Rocket 4.0 18:39:31 10° NNW 18:44:18 26° NNE 18:49:03 10° E
ISS -3.0 18:44:30 10° W 18:47:37 37° SSW 18:50:24 12° SE
Cosmos 2084 Rocket 4.3 18:43:58 10° S 18:47:37 28° SE 18:51:16 10° ENE
Lacrosse 4 Rocket 3.7 18:44:21 10° W 18:47:51 28° NW 18:51:24 10° NNE
ARIANE 6 FM1 Upper Stage 2.5 18:45:13 10° SW 18:49:12 64° SE 18:53:14 10° ENE
IKONOS-2 4.5 18:45:23 10° NNE 18:49:32 86° WNW 18:53:39 10° SSW
Cosmos 1833 Rocket 2.7 18:44:20 10° SSW 18:49:56 69° ESE 18:55:34 10° NE
Cosmos 1821 Rocket 4.2 18:44:03 10° N 18:50:08 59° ENE 18:55:50 11° SSE
Cosmos 2218 Rocket 4.1 18:48:22 10° N 18:54:48 87° E 19:01:07 10° S
Cosmos 1356 Rocket 3.5 18:53:36 10° S 18:57:40 59° E 19:01:42 10° NNE
Cosmos 1733 3.9 18:57:33 10° NNW 19:00:27 37° W 19:03:20 10° SSW
Cosmos 2219 Rocket 4.4 18:56:18 10° NNW 19:00:31 21° NNE 19:04:43 10° ENE
Cosmos 158 Rocket 4.2 18:55:30 10° SSW 19:00:50 83° WNW 19:06:16 10° NNE
NOSS 3-1 (A) 3.9 19:03:26 10° S 19:07:37 29° ESE 19:12:31 10° ENE
USA 234 3.3 19:01:37 10° ENE 19:08:07 62° SSE 19:14:35 10° SW
Cosmos 2058 Rocket 4.4 19:04:05 10° SW 19:08:19 42° WNW 19:12:34 10° N
Cosmos 1980 Rocket 2.3 19:05:17 10° NW 19:10:53 75° WSW 19:15:43 14° SSE
Cosmos 1805 3.0 19:11:00 10° N 19:14:28 68° ENE 19:17:00 17° SSE
Cosmos 1812 Rocket 3.5 19:12:09 10° S 19:16:26 81° E 19:20:47 10° NNE
Terra 3.8 19:14:08 10° SW 19:17:52 23° W 19:21:37 10° NW
SWARM A 4.4 19:15:00 11° S 19:18:11 75° W 19:21:35 10° N
Cosmos 2181 Rocket 4.0 19:14:21 10° S 19:20:37 78° E 19:27:02 10° NNE
Cosmos 2208 Rocket 4.0 19:16:25 10° SSW 19:21:46 71° ESE 19:27:05 10° NNE
SL-16 R/B 3.0 19:16:29 10° NNW 19:21:58 46° NE 19:27:25 10° ESE
ATLAS CENTAUR R/B 1.5 19:20:04 10° SW 19:23:48 69° NW 19:27:40 10° NE
Cosmos 1315 Rocket 2.7 19:20:18 11° S 19:23:58 77° ESE 19:27:52 10° NNE
Meteor 1-11 Rocket 3.9 19:18:32 10° N 19:24:02 64° ENE 19:28:28 16° SSE
SL-24 R/B 4.1 19:22:08 10° NNE 19:26:28 80° ESE 19:30:53 10° SSW
Cosmos 2344 4.2 19:19:24 10° WSW 19:26:35 59° NNW 19:34:16 10° NE
DELTA 2 DEB (DPAF) 3.9 19:26:25 10° NNE 19:30:20 60° ESE 19:33:23 16° S
Cosmos 2322 Rocket 3.4 19:25:35 10° NNW 19:30:53 37° NE 19:36:07 10° ESE
Cosmos 2237 4.4 19:25:36 10° NNW 19:31:18 68° NE 19:36:07 15° SE
BlueWalker 3 3.7 19:32:30 10° W 19:34:57 17° SW 19:36:16 15° SSW
Meteor 1-14 Rocket 4.5 19:30:51 10° NNW 19:36:25 68° W 19:41:17 14° S
Genesis I 3.0 19:34:25 10° NW 19:37:07 48° NE 19:39:01 17° ESE
Cosmos 1975 3.5 19:35:11 10° N 19:38:40 38° ENE 19:40:57 18° SE
Ariane Rocket 4.3 19:37:25 10° SSW 19:41:58 33° W 19:46:34 10° NNW
Nadezhda 3 Rocket 4.1 19:37:18 15° S 19:42:21 61° E 19:48:31 10° NNE
Cosmos 1697 Rocket 4.3 19:38:01 10° NW 19:42:35 26° WSW 19:47:09 10° SSW
CZ-4C R/B 3.5 19:39:50 10° NNE 19:43:24 45° E 19:45:22 22° SSE
CENTAUR R/B 3.6 19:37:15 10° NW 19:44:46 62° NNE 19:53:43 10° ESE
Cosmos 1934 Rocket 4.2 19:40:00 10° N 19:46:12 63° ENE 19:51:02 18° SSE
ATLAS 3B R/B 3.8 19:42:57 16° SSE 19:47:28 29° ESE 19:53:53 10° ENE
Cosmos 2278 4.0 19:42:35 10° NNW 19:48:13 63° NE 19:52:56 15° SE
ARIANE 5 R/B 2.8 19:46:27 19° SE 19:49:26 60° ENE 19:53:46 10° N
Cosmos 1238 Rocket 3.1 19:46:06 11° SSW 19:49:31 53° WNW 19:52:42 10° N
Cosmos 2360 Rocket 3.2 19:45:20 10° NNW 19:50:41 42° NE 19:56:00 10° ESE
Cosmos 1842 Rocket 4.1 19:48:46 20° SSE 19:51:18 42° E 19:55:22 10° NNE
Meteor 2-6 Rocket 4.5 19:48:41 10° SSW 19:54:31 72° WNW 20:00:14 10° NNE
Cosmos 2369 4.0 19:50:01 10° NW 19:55:34 57° WSW 19:59:35 19° S
Cosmos 1766 3.3 19:52:39 10° N 19:56:03 52° ENE 19:57:53 24° SE
Cosmos 1470 3.9 19:54:17 10° N 19:57:27 29° ENE 19:59:30 17° ESE
Cosmos 1908 3.8 19:55:56 10° N 19:59:00 36° ENE 20:00:37 21° SE
Cosmos 1536 3.7 19:56:26 10° NNW 20:00:02 39° W 20:02:41 16° SSW
SeaSat 1 3.5 19:57:02 16° S 20:00:26 35° WSW 20:04:57 10° NW
CZ-2C R/B 4.0 19:58:50 10° NNE 20:03:07 48° E 20:05:39 22° SSE
Cosmos 2221 3.3 20:01:12 10° SSW 20:05:15 48° WNW 20:09:18 10° N
Cosmos 2082 Rocket 2.2 20:00:20 12° SSW 20:05:30 68° ESE 20:11:07 10° NE
Cosmos 405 Rocket 2.4 20:03:09 10° NNW 20:06:36 76° WSW 20:08:21 27° S
Timation 1 Rocket 4.5 20:04:14 15° S 20:09:05 57° ESE 20:14:57 10° NE
Okean 1 4.4 20:08:18 10° SW 20:11:45 37° WNW 20:15:12 10° N
KORONAS-FOTON 4.5 20:14:56 25° SE 20:16:18 35° E 20:19:31 10° NNE
Meteor 1-10 Rocket 4.4 20:11:54 15° SSW 20:16:58 84° WNW 20:22:50 10° NNE
COBE Rocket 4.1 20:12:09 10° N 20:17:15 76° WNW 20:21:35 15° SSW
Cosmos 773 Rocket 4.4 20:12:58 10° SW 20:18:03 61° WNW 20:23:09 10° NNE
Okean 3 Rocket 3.6 20:14:48 10° NNW 20:19:13 81° W 20:21:53 24° S
Cosmos 1674 3.0 20:18:53 21° WSW 20:19:48 29° WNW 20:21:48 10° N
COSMOS 2406 3.3 20:17:11 18° S 20:21:25 59° ESE 20:27:03 10° NE
Landsat 5 3.7 20:17:54 10° NNE 20:22:00 53° ESE 20:24:14 25° SSE
NOSS 3-2 (A) 4.4 20:16:29 10° NW 20:23:04 59° NNE 20:31:11 10° ESE
ISS -1.6 20:21:59 10° WSW 20:23:18 13° SW 20:23:18 13° SW
USA 59 Rocket -0.3 20:24:31 33° SSE 20:25:08 37° SE 20:27:55 10° ENE
BREEZE-M R/B 4.1 20:16:41 10° WNW 20:25:28 30° SW 20:27:31 21° S
Cosmos 2084 Rocket 3.8 20:21:59 10° WSW 20:26:14 67° NW 20:30:27 10° NE
NOSS 3-1 (C) 3.7 20:23:13 10° WSW 20:28:17 64° NNW 20:34:41 10° NE
ARIANE 6 FM1 Upper Stage 4.1 20:24:44 10° W 20:28:34 39° NNW 20:32:26 10° NE
Cosmos 2333 Rocket 2.3 20:23:45 10° NNW 20:29:32 76° NE 20:33:55 18° SE
Cosmos 1842 3.7 20:29:20 27° SE 20:30:37 39° E 20:33:53 10° NNE
Cosmos 1833 Rocket 4.4 20:29:10 10° WSW 20:34:18 34° NW 20:39:27 10° NNE
NOSS 2-1 (E) 3.2 20:35:16 34° S 20:36:02 40° SE 20:38:54 10° ENE
MetOp-A 4.4 20:32:58 21° S 20:36:16 54° W 20:41:22 10° NNW
Meteor 2-13 Rocket 4.5 20:35:04 19° SSW 20:39:42 87° W 20:45:53 10° NNE
Cosmos 1455 4.1 20:40:58 10° NE 20:42:19 13° ENE 20:43:40 10° E
Cosmos 1300 3.3 20:40:50 10° N 20:43:47 35° ENE 20:45:10 23° ESE
ALOS 2 2.6 20:42:21 26° S 20:44:49 79° WSW 20:49:14 10° NNW
Cosmos 1151 Rocket 3.5 20:42:48 25° SSE 20:44:50 45° E 20:48:53 10° NNE
Cosmos 2219 Rocket 2.8 20:40:10 10° NNW 20:45:43 55° NE 20:51:00 11° SE
Cosmos 2333 4.4 20:41:35 10° NNW 20:47:17 69° NE 20:51:55 15° SE
USA 234 3.4 20:44:47 10° ENE 20:51:21 80° NNW 20:57:54 10° W
NOSS 2-1 (D) 2.6 20:50:18 30° SSW 20:51:40 64° SE 20:54:38 10° NE
Meteor 2-4 Rocket 3.8 20:48:50 22° S 20:52:34 77° E 20:58:26 10° NNE
Meteor 1-27 Rocket 3.9 20:48:32 17° SSW 20:52:50 70° WNW 20:58:23 10° N
Cosmos 1980 Rocket 4.2 20:50:40 10° WNW 20:53:57 16° W 20:57:14 10° SW
NOSS 3-1 (A) 3.4 20:52:41 10° WSW 20:57:45 75° NW 21:04:09 10° NE
Sich 1 3.4 20:55:34 10° NNW 20:59:43 53° W 21:01:52 26° SSW
CZ-2C R/B 4.2 20:56:01 10° ESE 21:00:21 28° ENE 21:04:41 10° N
ATLAS CENTAUR R/B 3.7 20:57:24 10° WNW 21:00:32 24° NNW 21:03:44 10° NE
Cosmos 1371 Rocket 4.3 20:55:43 10° NNW 21:01:04 65° ENE 21:05:13 17° SE
BREEZE-M DEB (TANK) 3.7 20:54:01 10° W 21:03:37 36° SW 21:05:28 26° S
Cosmos 2100 Rocket 4.5 20:57:46 10° N 21:04:00 56° ENE 21:08:46 17° SSE
SL-16 R/B 2.7 21:00:43 10° NW 21:06:06 46° WSW 21:09:15 23° S
Cosmos 2056 Rocket 3.7 21:01:25 10° NNW 21:06:47 72° ENE 21:10:41 18° SE
PSLV R/B 3.5 21:03:09 10° NNE 21:07:19 66° ESE 21:09:23 28° S
Genesis I 4.3 21:08:07 10° WNW 21:09:43 18° WSW 21:09:43 18° WSW
Cosmos 1624 Rocket 4.1 21:05:37 10° NNW 21:10:50 75° ENE 21:14:39 19° SE
NOSS 2-1 (C) 2.6 21:09:43 23° SW 21:11:33 88° NW 21:14:32 10° NE
Cosmos 1975 4.4 21:10:54 10° NW 21:13:49 22° W 21:15:35 16° SW
Cosmos 1538 Rocket 3.9 21:10:27 20° SSW 21:14:02 88° WNW 21:19:14 10° NNE
Cosmos 1500 Rocket 4.1 21:10:08 10° NNW 21:14:19 47° W 21:16:34 24° SSW
Cosmos 2322 Rocket 2.3 21:09:39 10° NW 21:15:15 60° WSW 21:18:38 24° S
NOSS 3-2 (C) 4.5 21:09:53 10° NW 21:16:31 59° NNE 21:24:39 10° ESE
Exosat Rocket 3.9 21:11:46 10° NW 21:16:41 47° WSW 21:19:21 24° S
H-2A R/B 3.5 21:15:01 15° SE 21:17:53 36° ENE 21:21:27 10° N
Cosmos 1459 Rocket 4.3 21:11:55 10° N 21:17:59 62° ENE 21:22:37 18° SSE
Cosmos 1707 2.8 21:18:01 28° SW 21:19:30 54° WNW 21:22:49 10° N
COSMOS 2428 3.7 21:15:01 10° NNW 21:20:33 46° NE 21:26:04 10° ESE
Cosmos 1633 Rocket 3.3 21:16:55 10° N 21:21:15 60° ENE 21:23:51 23° SSE
Geosat FO 4.1 21:21:07 39° SSE 21:22:03 67° WSW 21:25:05 10° NW
Cosmos 44 Rocket 4.2 21:19:03 10° NW 21:23:41 48° NNE 21:28:23 10° ESE
Meteor 2-10 Rocket 3.9 21:20:12 10° NNW 21:25:56 75° ENE 21:30:03 20° SSE
ARIANE 5 R/B 4.4 21:23:51 14° SW 21:26:09 21° W 21:29:28 10° NW
Cosmos 1066 Rocket 4.2 21:23:03 23° SSW 21:26:42 89° E 21:32:30 10° NNE
Cosmos 1470 3.9 21:28:57 10° NNW 21:32:02 28° W 21:33:25 21° SW
Cosmos 2173 Rocket 4.1 21:26:15 10° N 21:32:40 80° ENE 21:37:12 20° SSE
Iridium 51 4.4 21:29:10 10° N 21:32:44 57° E 21:34:33 27° SSE
Cosmos 2360 Rocket 2.5 21:29:23 10° NW 21:34:50 52° WSW 21:38:03 24° S
CENTAUR R/B 3.3 21:27:53 10° NW 21:35:50 65° SW 21:44:23 12° SSE
Meteor 1-18 Rocket 4.4 21:32:07 22° SSW 21:36:03 77° WNW 21:41:59 10° NNE
GP-B 3.2 21:32:34 10° N 21:36:57 68° W 21:39:19 26° SSW
ATLAS 3B R/B 3.0 21:30:06 11° SW 21:37:22 84° SE 21:45:18 10° NE
USA 229 DEB 3.6 21:33:24 19° SSW 21:37:53 67° SE 21:44:44 10° NE
USA 229 3.6 21:33:32 19° SSW 21:38:00 66° SE 21:44:49 10° NE
ASTEX 1 3.4 21:38:48 10° N 21:43:45 77° W 21:46:45 24° SSW
GEOS 3 Rocket 3.5 21:41:10 10° SE 21:46:16 85° SW 21:51:28 10° NW
Cosmos 1758 3.5 21:43:24 10° N 21:47:13 62° ENE 21:49:25 23° SSE
CZ-2C R/B 4.4 21:42:34 10° NNE 21:47:52 35° E 21:51:58 16° SSE
Cosmos 1328 Rocket 3.6 21:46:16 27° S 21:48:33 68° E 21:52:51 10° NNE
Cosmos 2082 Rocket 3.7 21:44:54 10° WSW 21:50:01 34° NW 21:55:09 10° NNE
Cosmos 2123 Rocket 4.4 21:46:03 19° SSE 21:50:30 57° E 21:56:41 10° NNE
In-Cosmos 22 4.3 21:49:28 23° S 21:53:09 72° E 21:58:56 10° NNE
Cosmos 2112 Rocket 4.0 22:00:57 23° SSW 22:04:14 74° ESE 22:09:28 10° NNE
COSMOS 2406 4.5 22:00:42 10° WSW 22:06:01 38° NW 22:11:22 10° NNE
Cosmos 2237 Rocket 3.3 22:00:36 10° NNW 22:06:01 44° NE 22:11:25 10° ESE
NOSS 2-2 (D) 4.0 22:09:09 10° NW 22:12:39 55° NE 22:17:14 10° ESE
Cosmos 2061 Rocket 4.3 22:06:38 10° N 22:13:05 70° ENE 22:18:50 13° SSE
Cosmos 2333 Rocket 3.5 22:08:41 10° NW 22:13:17 25° WSW 22:15:54 18° SW
USA 59 Rocket 0.9 22:11:23 10° W 22:14:07 30° NNW 22:16:50 10° NE
NOSS 3-2 (A) 4.0 22:07:13 10° NW 22:14:15 64° SW 22:22:45 10° SSE
Cosmos 1455 1.9 22:12:06 10° NNW 22:14:49 44° W 22:15:31 35° SW
Cosmos 1300 4.1 22:14:40 10° NW 22:16:55 18° W 22:17:48 16° WSW
Cosmos 2322 3.7 22:15:01 10° NW 22:20:43 76° WSW 22:26:00 12° SSE
SL-14 R/B 3.1 22:18:45 26° SSW 22:20:48 87° W 22:24:43 10° NNE
Cosmos 1953 3.4 22:18:47 10° N 22:22:14 37° ENE 22:25:38 10° SE
NOSS 2-2 (C) 3.4 22:19:58 10° NW 22:23:40 90° ENE 22:28:39 10° SE
Cosmos 1110 Rocket 4.0 22:18:33 10° NNW 22:23:53 80° WSW 22:28:27 14° SSE
NOSS 2-1 (E) 4.5 22:22:26 10° W 22:25:15 30° NNW 22:28:00 10° NE
Cosmos 1437 Rocket 3.8 22:25:52 16° SSE 22:28:03 31° E 22:31:13 10° NNE
Cosmos 1452 Rocket 3.5 22:22:50 10° NNW 22:28:07 87° WSW 22:33:06 11° SSE
Meteor 1-13 Rocket 4.4 22:24:25 20° S 22:28:39 82° E 22:34:38 10° NNE
Cosmos 2219 Rocket 2.9 22:24:23 10° NW 22:29:30 36° WSW 22:32:39 20° SSW
Cosmos 494 Rocket 3.9 22:27:54 21° SSW 22:31:20 82° ESE 22:36:31 10° NNE
USA 234 3.5 22:27:45 10° E 22:34:16 76° N 22:40:49 10° WNW
IRIDIUM 114 4.4 22:31:47 19° S 22:35:38 81° E 22:40:54 10° N
ATLAS CENTAUR R/B 4.2 22:34:58 10° NW 22:37:48 19° N 22:40:38 10° NE
CZ-2C R/B 2.6 22:36:30 18° S 22:40:17 62° WSW 22:45:25 10° NNW
SL-16 R/B 4.1 22:36:23 10° NNW 22:41:27 32° NE 22:46:31 10° ESE
Cosmos 1048 Rocket 4.1 22:39:54 20° S 22:43:27 65° ESE 22:48:31 10° NNE
Cosmos 1680 Rocket 4.0 22:39:24 16° SW 22:43:34 54° WNW 22:48:42 10° NNE
Cosmos 2016 Rocket 4.2 22:37:49 10° NNW 22:43:51 58° W 22:48:31 17° SSW
IRIDIUM 103 4.3 22:40:55 19° S 22:44:48 87° W 22:50:04 10° N
Cosmos 2297 Rocket 3.6 22:44:12 11° SSE 22:48:45 29° ESE 22:53:34 10° NE
H-2A R/B 3.4 22:50:24 20° SW 22:52:18 29° W 22:55:44 10° NW
Cosmos 1331 Rocket 4.2 22:49:57 10° NW 22:54:59 51° WSW 22:59:07 15° S
Cosmos 2322 Rocket 4.1 22:55:52 10° WNW 22:58:07 12° W 23:00:22 10° WSW
Cosmos 1302 Rocket 4.0 22:53:35 10° NNW 22:58:50 89° NE 23:04:04 10° SSE
Aureole 3 Rocket 3.9 22:54:55 10° N 22:59:48 49° ENE 23:03:26 10° SSE
Cosmos 921 Rocket 4.3 22:57:50 12° SSE 23:01:11 31° ESE 23:04:54 10° NE
Cosmos 1933 Rocket 4.0 22:58:07 10° NNW 23:02:23 47° W 23:05:27 18° SSW
IRIDIUM 106 4.5 22:59:11 17° SSW 23:03:08 65° W 23:08:22 10° N
COSMOS 2428 3.1 22:59:24 10° NW 23:04:52 46° WSW 23:09:57 12° S
Cosmos 44 Rocket 3.5 23:00:33 10° NW 23:05:08 46° SW 23:09:49 10° SSE
NOSS 3-2 (C) 4.1 23:00:41 10° NW 23:07:45 63° SW 23:16:14 10° SSE
SL-16 R/B 4.2 23:03:13 10° ESE 23:08:44 36° NE 23:14:16 10° N
Cosmos 2292 Rocket 4.1 23:06:34 13° S 23:11:39 69° E 23:16:02 10° NNE
Cosmos 1980 3.7 23:07:30 10° NW 23:13:12 77° WSW 23:18:51 10° SSE
Cosmos 2227 Rocket 4.0 23:09:51 10° SSE 23:14:10 23° ESE 23:18:30 10° NE
Cosmos 1869 Rocket 3.9 23:10:36 10° NNW 23:14:57 52° W 23:18:29 15° SSW
IDEFIX/ARIANE 42P 2.8 23:09:43 10° NNE 23:14:59 71° ESE 23:19:43 13° S
USA 238 DEB 4.0 23:09:06 10° NW 23:16:19 87° NE 23:24:13 10° SE
USA 238 4.0 23:09:12 10° NW 23:16:25 87° NE 23:24:19 10° SE
Cosmos 2360 Rocket 4.3 23:17:08 10° W 23:17:31 10° W 23:17:55 10° W
Cosmos 1515 Rocket 4.3 23:14:53 15° SW 23:18:05 40° WNW 23:22:14 10° N
NOSS 0 Rocket 4.2 23:13:59 10° NW 23:20:00 50° WSW 23:25:57 10° S
Resurs 1-4 Rocket 3.1 23:15:43 10° NNE 23:20:41 41° E 23:25:37 10° SSE
CENTAUR R/B 4.4 23:19:24 10° WNW 23:25:34 23° WSW 23:31:23 12° SSW
CZ-2C R/B 3.7 23:22:14 10° N 23:27:52 54° WNW 23:32:58 13° SW
Okean 2 3.4 23:24:22 13° S 23:27:53 72° E 23:31:50 10° NNE
ATLAS 3B R/B 3.8 23:21:23 10° W 23:28:52 51° NNW 23:36:34 10° NE
USA 229 DEB 4.4 23:22:53 10° W 23:29:07 53° NNW 23:36:10 10° NE
USA 229 4.4 23:22:59 10° W 23:29:12 53° NNW 23:36:15 10° NE
H-2A R/B 2.0 23:25:22 10° NNE 23:29:32 74° ESE 23:33:14 12° S
Meteor 1-21 4.3 23:24:56 14° SSW 23:29:49 73° WNW 23:35:30 10° NNE
NOSS 2-2 (E) 3.7 23:30:19 10° WNW 23:34:01 49° SW 23:38:59 10° SSE
NPP 3.7 23:32:03 10° NNE 23:37:30 88° ESE 23:42:48 11° SSW
Cosmos 1733 Rocket 3.1 23:33:47 10° NNW 23:38:12 73° W 23:42:36 10° S
Cosmos 614 Rocket 4.2 23:34:34 12° SSW 23:39:25 71° ESE 23:44:36 10° NNE
Cosmos 1992 Rocket 4.0 23:34:41 10° NNW 23:39:55 80° WSW 23:45:07 10° SSE
SAR-Lupe-3 4.0 23:37:51 10° S 23:40:48 73° WSW 23:43:47 10° NNW
COSMOS 2455 2.9 23:36:01 10° NW 23:42:05 89° NE 23:48:09 10° SE
Lacrosse 4 Rocket 3.4 23:42:00 10° NNW 23:45:45 33° NE 23:49:33 10° ESE
ADEOS II 3.1 23:40:45 10° NNE 23:45:46 44° E 23:50:45 10° S
Cosmos 1862 Rocket 3.8 23:41:30 10° S 23:45:54 73° E 23:50:22 10° NNE
GENESIS II 3.4 23:42:58 10° NW 23:45:55 61° SW 23:48:52 10° SSE
Cosmos 2228 Rocket 3.4 23:42:51 10° S 23:47:24 72° E 23:51:57 10° NNE
Cosmos 1703 3.1 23:44:38 10° S 23:48:04 72° E 23:51:34 10° NNE
ARIANE 6 FM1 Upper Stage 3.8 23:44:24 10° NW 23:48:23 48° NNE 23:52:27 10° E
ALOS 3.3 23:45:49 10° NNE 23:50:10 41° E 23:54:29 10° S
Cosmos 2237 Rocket 2.5 23:44:46 10° NW 23:50:10 48° WSW 23:55:34 10° S
USA 281 3.6 23:46:28 10° NNE 23:53:00 62° ESE 23:59:30 10° SSW
CZ-2D R/B 2.5 23:48:26 10° NNE 23:53:54 67° ESE 23:59:21 10° S
